星链-32156 (STARLINK-32156)

导读

STARLINK-32156是美国太空探索技术公司(SpaceX)于2024年7月28日发射的Starlink(星链)卫星,属于星链全球卫星互联网星座的一员,部署在近地轨道运行。星链星座通过大规模低轨卫星组网,旨在为全球偏远、无传统网络覆盖区域提供低 latency、高速的宽带互联网服务。STARLINK-32156的入轨进一步扩充了星链星座规模,推动SpaceX全球卫星互联网组网进程,是星链星座持续部署、完善全球覆盖能力的重要组成部分。

Basic Information
目录编号:
60278
目录名称:
STARLINK-32156
国际标识:
2024-132A
轨道中心:
EARTH
卫星名称:
星链-32156 (STARLINK-32156)
卫星全名:
星链-32156 (STARLINK-32156)
卫星状态:
在轨 (已飞行776 天)
发射日期:
2024-07-28 UTC
国别 :
美国 (US)
星等 :
--
This satellite is enrolled in the Space Conjunction Data Service (SCDS) and the current flight risk assessment level is: No High Risk
Orbit Information
数据来源 国际轨道数据
星历时间: 2026-09-12T01:36:02+0800
9小时前
查看轨道信息
半长轴: 6840.877km
偏心率: 0.0001232
轨道倾角: 53.159°
近地点辐角 87.299°
升交点赤经 266.923°
平近点角 272.816°
近地点: 461.897km
远地点: 463.583km
周期: 93.849分钟
每日圈数: 15.343877
Detailed Information
卫星平台:
Starlink v2.0 mini
运营商:
太空探索技术公司
运营商所在国:
美国
制造商(研发单位):
太空探索技术公司
制造商所在国:
美国
使用方式:
暂无
Satellite Introduction
星链(Starlink)计划是由太空探索技术公司(SpaceX)提出的一个巨型低轨卫星互联网星座项目,计划在2019年至2024年间在太空搭建由约1.2万颗卫星组成的“星链”网络,其中1584颗将部署在地球上空550千米处的近地轨道,并从2020年开始工作。该卫星仍在工作。
2D Orbit Map
3D Orbit Map
Orbit Altitude Analysis Chart
Orbit Inclination Analysis Chart
Orbit Comprehensive Analysis Chart
View Comprehensive Chart
Conjunction Data List
Event ID Objects TCA Miss Dist (km) Collision Risk Probability Collision Risk Index (CRI) Action
CDM_260913-221506-027806-925421
2026-09-13T
22:15:23+0000
0.901 km
远距离
2.332305E-5 中风险 0.62
CDM_260913-103106-027806-925422
2026-09-13T
10:31:57+0000
1.651 km
极远距离
3.079682E-6 低风险 0.45
CDM_260913-120506-027806-925421
2026-09-13T
12:05:44+0000
2.549 km
极远距离
1.117141E-6 低风险 0.36
CDM_260913-204106-027806-925422
2026-09-13T
20:41:35+0000
2.982 km
极远距离
9.000151E-7 极低风险 0.34
CDM_260914-030605-212206-027821
2026-09-14T
03:06:31+0000
2.759 km
极远距离
7.714452E-7 极低风险 0.33
Miss Distance Evolution Trend with All Objects
Collision Probability Evolution Trend with All Objects